カタログに戻る

STARLINK-6176

運用中通信VLEO
NORAD 56388·PAYLOAD·🇺🇸 United States

打ち上げ May 4, 2023 から Cape Canaveral Space Force Station

Loading…

次のパス (今後24時間)

TLE

最新Source: CelesTrak SupGP

元期: Sep 15, 2026, 02:06 UTC

1 56388C 23061Q   26258.08798611 -.00015644  00000+0 -56681-3 0  2583
2 56388  43.0004 208.6519 0000999 265.2922   4.6441 15.27575758    11

AllMySatでSTARLINK-6176をリアルタイム追跡

Download on the App Store